Content
SEND FEEDBACK

Daily
Averages
Monthly
Summary
Greece

IOANNINA, GREECE


Home > Europe > Greece
Elevation: 1588 feet     Latitude: 39 40N     Longitude: 020 51E

WEATHER
 
SELECT A DAY
Number of Records: 291,771;   Date Range: 7/1/96 - 12/18/14
 
SHARE

PRINT THIS DATA

[ ← Previous Day ]
WEATHER ALMANAC - JULY 28, 2013
[ Next Day → ]
[ °C ]   °F
Weather ElementAverageHighLow
Temperature79.7 °F95 °F (3:20 pm)64.4 °F (5:50 am)
Dewpoint57.3 °F62.6 °F (8:50 pm)50 °F (2:50 pm)
Humidity50.7 %83 % (5:50 am)22 % (3:20 pm)
Barometer30.03 in30.09 in (11:50 pm)29.98 in (12:50 am)
Wind Speed2.7 mph10.4 mph (5:50 pm)
Weather ElementAverage
Visibility6.2 mi
Wind DirectionESE (117.8 °)

Weather ElementTotal
Precipitation---
Cooling Degree Days14.7 (Base 65)
Growing Degree Days29.7 (Base 50)
Averaged from 45 records on July 28, 2013
WEATHER CONDITIONS BREAKOUT
WIND DIRECTION BREAKOUT
WEATHER BY HOUR - JULY 28, 2013
[ °C ]   °F
Local TimeTemperatureDewpointHumidityBarometerVisibilityWind DirectionWind SpeedGust SpeedPrecipitationEventsConditions
12:50 AM71.6 °F60.8 °F69 %29.98 inCalm
1:20 AM71.6 °F60.8 °F69 %29.98 inCalm
1:50 AM71.6 °F59.0 °F64 %29.98 inCalm
2:20 AM69.8 °F59.0 °F68 %29.98 inCalm
2:50 AM69.8 °F59.0 °F68 %29.98 inCalm
3:20 AM68.0 °F59.0 °F73 %29.98 inCalm
3:50 AM68.0 °F59.0 °F73 %30.01 inCalm
4:20 AM68.0 °F59.0 °F73 %30.01 inCalm
4:50 AM66.2 °F59.0 °F78 %30.01 inCalm
5:20 AM66.2 °F57.2 °F73 %30.01 inCalm
5:50 AM64.4 °F59.0 °F83 %30.01 inCalm
6:20 AM66.2 °F57.2 °F73 %30.04 inVariable1.2 mph
6:50 AM64.4 °F57.2 °F77 %30.04 inVariable1.2 mph
7:20 AM64.4 °F59.0 °F83 %30.04 inVariable1.2 mph
7:50 AM68.0 °F59.0 °F73 %30.04 inVariable1.2 mph
8:20 AM69.8 °F59.0 °F68 %30.04 inVariable1.2 mph
8:50 AM73.4 °F60.8 °F65 %30.04 inNNE (30°)2.3 mphClear
9:20 AM77.0 °F60.8 °F57 %30.04 in6.2 miNNW (340°)1.2 mphPartly Cloudy
9:50 AM80.6 °F59.0 °F48 %30.04 in6.2 miESE (110°)1.2 mphPartly Cloudy
10:20 AM82.4 °F57.2 °F42 %30.04 in6.2 miEast (90°)2.3 mphPartly Cloudy
10:50 AM84.2 °F57.2 °F40 %30.04 in6.2 miEast (90°)2.3 mphPartly Cloudy
11:20 AM86.0 °F51.8 °F31 %30.04 in6.2 miEast (90°)2.3 mphPartly Cloudy
11:50 AM89.6 °F55.4 °F31 %30.04 in6.2 miEast (90°)4.6 mphPartly Cloudy
12:20 PM89.6 °F55.4 °F31 %30.04 in6.2 miEast (100°)5.8 mphPartly Cloudy
12:50 PM91.4 °F55.4 °F29 %30.04 in6.2 miEast (100°)4.6 mphPartly Cloudy
1:20 PM91.4 °F53.6 °F28 %30.04 in6.2 miESE (120°)6.9 mphPartly Cloudy
1:50 PM93.2 °F53.6 °F26 %30.04 in6.2 miNW (320°)3.5 mphPartly Cloudy
2:20 PM91.4 °F51.8 °F26 %30.04 inWSW (240°)4.6 mph
2:50 PM93.2 °F50.0 °F23 %30.04 inWest (280°)4.6 mph
3:20 PM95.0 °F50.0 °F22 %30.01 inNorth (360°)4.6 mph
3:50 PM95.0 °F50.0 °F22 %30.01 inNW (320°)5.8 mph
4:20 PM95.0 °F50.0 °F22 %30.01 inNW (320°)4.6 mph
4:50 PM93.2 °F53.6 °F26 %30.01 inWNW (300°)5.8 mph
5:50 PM91.4 °F57.2 °F31 %30.01 in6.2 miWNW (290°)10.4 mphScattered Clouds
6:20 PM91.4 °F57.2 °F31 %30.01 in6.2 miWest (270°)9.2 mphScattered Clouds
6:50 PM89.6 °F57.2 °F33 %30.01 in6.2 miWest (270°)8.1 mphScattered Clouds
7:20 PM87.8 °F57.2 °F35 %30.04 in6.2 miWNW (290°)6.9 mphScattered Clouds
7:50 PM86.0 °F57.2 °F37 %30.04 in6.2 miWest (280°)5.8 mphScattered Clouds
8:20 PM84.2 °F59.0 °F42 %30.04 in6.2 miWNW (290°)3.5 mphScattered Clouds
8:50 PM80.6 °F62.6 °F54 %30.06 in6.2 miNW (310°)2.3 mphScattered Clouds
9:50 PM78.8 °F60.8 °F54 %30.06 in6.2 miCalmScattered Clouds
10:20 PM77.0 °F60.8 °F57 %30.06 inCalm
10:50 PM77.0 °F60.8 °F57 %30.06 inCalm
11:20 PM78.8 °F60.8 °F54 %30.06 inVariable1.2 mph
11:50 PM75.2 °F60.8 °F61 %30.09 inCalm
Hourly data recorded from LGIO, located miles away from Ioannina, Greece







STORIES FROM OUR PARTNERS